Flag for U.S.A. Weather past 2 weeks in Olathe, Kansas, U.S.A.

Now
76 °F

Clear.


Feels Like: 76 °F
Forecast: 73 / 88 °F
Wind: 6 mph from Southeast

Location: Johnson County Executive Airport

Current Time: Aug 28, 2014 at 2:55:16 AM

Latest Report: Aug 28, 2014 at 1:53 AM


Visibility: 10 mi

Pressure: 29.96 "Hg

Humidity: 91%

Dew point: 73 °F

Location of OlatheLocation

Historic Weather in Olathe — Graph

°F

Olathe temperature yesterday

Maximum temperature yesterday: 87 °F (at 3:53 PM)
Minimum temperature yesterday: 71 °F (at 6:53 AM)
Average temperature yesterday: 80 °F

Past Weeks' High & Low Weather Summary

 TemperatureHumidityPressure
High96 °F (Aug 23, 3:53 PM)100% (Aug 17, 7:53 AM)30.14 "Hg (Aug 17, 7:53 AM)
Low59 °F (Aug 13, 5:53 AM)34% (Aug 23, 4:53 PM)29.72 "Hg (Aug 19, 5:53 AM)
Average79 °F70%29.91 "Hg
* Reported Aug 13 1:53 AM — Aug 28 1:53 AM, Olathe, Weather by CustomWeather, © 2014

Note: Actual official high and low records may vary slightly from our data, if they occured in-between our weather recording intervals... More about our weather records

Advertising

Olathe weather history for previous 24 hours

 ConditionsComfort  
Time TempWeatherWind HumidityBarometerVisibility
1:53 AM
Aug 28
76 °FClear.6 mph91%29.96 "Hg10 mi
12:53 AM77 °FPassing clouds.7 mph88%29.98 "Hg10 mi
11:53 PM
Aug 27
78 °FPassing clouds.8 mph84%29.99 "Hg10 mi
10:53 PM78 °FClear.7 mph82%30.00 "Hg10 mi
9:53 PM79 °FClear.9 mph79%30.00 "Hg10 mi
8:53 PM80 °FSunny.12 mph79%30.00 "Hg10 mi
7:53 PM81 °FSunny.5 mph77%30.00 "Hg10 mi
6:53 PM82 °FSunny.8 mph72%29.99 "Hg10 mi
5:53 PM83 °FSunny.7 mph70%29.99 "Hg10 mi
4:53 PM86 °FSunny.10 mph65%30.00 "Hg10 mi
3:53 PM87 °FSunny.12 mph59%30.02 "Hg10 mi
2:53 PM86 °FSunny.9 mph63%30.05 "Hg10 mi
1:53 PM86 °FPassing clouds.9 mph63%30.06 "Hg10 mi
12:53 PM85 °FSunny.7 mph65%30.08 "Hg10 mi
11:53 AM84 °FSunny.7 mph67%30.09 "Hg10 mi
10:53 AM81 °FSunny.8 mph72%30.09 "Hg10 mi
9:53 AM81 °FSunny.8 mph72%30.08 "Hg10 mi
8:53 AM78 °FPartly sunny.8 mph76%30.07 "Hg10 mi
7:53 AM72 °FSunny.7 mph87%30.05 "Hg10 mi
6:53 AM71 °FClear.3 mph90%30.05 "Hg10 mi
5:53 AM72 °FClear.5 mph93%30.03 "Hg10 mi
4:53 AM74 °FClear.7 mph94%30.02 "Hg10 mi
3:53 AM75 °FPassing clouds.5 mph94%30.03 "Hg10 mi
2:53 AM75 °FClear.6 mph94%30.04 "Hg10 mi
Weather by CustomWeather, © 2014

See weather overviewHow to use our weather pages